| time (UTC) | temp F | wind direction | speed MPH | gust MPH | rain 1hr in | rain 24hr in | rain mn in | humidity % | barometer mb |
| 20260901224518 | 74 | 188 | 6.0 | 12.0 | 0.00 | 0.00 | 0.00 | 20 | 1012.4 |
| 20260901224020 | 74 | 171 | 1.0 | 10.0 | 0.00 | 0.00 | 0.00 | 21 | 1012.3 |
| 20260901223518 | 73 | 190 | 0.0 | 15.0 | 0.00 | 0.00 | 0.00 | 21 | 1012.4 |
| 20260901223019 | 73 | 191 | 4.0 | 15.0 | 0.00 | 0.00 | 0.00 | 22 | 1012.4 |
| 20260901222518 | 73 | 171 | 8.0 | 14.0 | 0.00 | 0.00 | 0.00 | 21 | 1012.5 |
| 20260901222018 | 73 | 191 | 0.0 | 18.0 | 0.00 | 0.00 | 0.00 | 22 | 1012.5 |
| 20260901221518 | 73 | 195 | 9.0 | 18.0 | 0.00 | 0.00 | 0.00 | 22 | 1012.5 |
| 20260901221019 | 73 | 177 | 3.0 | 9.0 | 0.00 | 0.00 | 0.00 | 21 | 1012.5 |
| 20260901220518 | 73 | 192 | 1.0 | 14.0 | 0.00 | 0.00 | 0.00 | 22 | 1012.5 |
| 20260901220021 | 71 | 167 | 9.0 | 15.0 | 0.00 | 0.00 | 0.00 | 23 | 1012.6 |
| 20260901215520 | 71 | 178 | 9.0 | 15.0 | 0.00 | 0.00 | 0.00 | 24 | 1012.6 |
| 20260901215019 | 72 | 168 | 10.0 | 15.0 | 0.00 | 0.00 | 0.00 | 23 | 1012.6 |
| 20260901214521 | 72 | 178 | 8.0 | 14.0 | 0.00 | 0.00 | 0.00 | 22 | 1012.6 |
| 20260901214018 | 72 | 152 | 8.0 | 14.0 | 0.00 | 0.00 | 0.00 | 22 | 1012.6 |
| 20260901213519 | 72 | 168 | 0.0 | 10.0 | 0.00 | 0.00 | 0.00 | 23 | 1012.7 |
| 20260901213018 | 71 | 162 | 0.0 | 13.0 | 0.00 | 0.00 | 0.00 | 24 | 1012.7 |
| 20260901212619 | 71 | 176 | 9.0 | 13.0 | 0.00 | 0.00 | 0.00 | 25 | 1012.8 |
| 20260901212020 | 71 | 162 | 4.0 | 12.0 | 0.00 | 0.00 | 0.00 | 25 | 1012.9 |
| 20260901211518 | 71 | 191 | 3.0 | 14.0 | 0.00 | 0.00 | 0.00 | 25 | 1012.8 |
| 20260901211017 | 71 | 166 | 10.0 | 14.0 | 0.00 | 0.00 | 0.00 | 24 | 1012.9 |
| 20260901210618 | 72 | 199 | 9.0 | 13.0 | 0.00 | 0.00 | 0.00 | 24 | 1012.9 |
| 20260901210018 | 72 | 182 | 0.0 | 12.0 | 0.00 | 0.00 | 0.00 | 24 | 1012.9 |
| 20260901205519 | 71 | 179 | 7.0 | 12.0 | 0.00 | 0.00 | 0.00 | 25 | 1012.9 |
| 20260901205025 | 70 | 174 | 2.0 | 17.0 | 0.00 | 0.00 | 0.00 | 26 | 1013.0 |
| 20260901204518 | 70 | 170 | 11.0 | 17.0 | 0.00 | 0.00 | 0.00 | 26 | 1013.0 |
| 20260901204019 | 70 | 188 | 5.0 | 14.0 | 0.00 | 0.00 | 0.00 | 26 | 1013.0 |
| 20260901203520 | 70 | 200 | 5.0 | 15.0 | 0.00 | 0.00 | 0.00 | 26 | 1013.1 |
| 20260901203024 | 70 | 174 | 10.0 | 15.0 | 0.00 | 0.00 | 0.00 | 26 | 1013.1 |
| 20260901202519 | 69 | 176 | 5.0 | 15.0 | 0.00 | 0.00 | 0.00 | 27 | 1013.1 |
| 20260901202018 | 70 | 183 | 7.0 | 15.0 | 0.00 | 0.00 | 0.00 | 27 | 1013.1 |
| 20260901201505 | 69 | 170 | 10.0 | 15.0 | 0.00 | 0.00 | 0.00 | 27 | 1013.2 |
| 20260901201006 | 69 | 179 | 6.0 | 15.0 | 0.00 | 0.00 | 0.00 | 29 | 1013.2 |
| 20260901200506 | 70 | 189 | 0.0 | 13.0 | 0.00 | 0.00 | 0.00 | 28 | 1013.1 |
| 20260901200004 | 70 | 198 | 6.0 | 13.0 | 0.00 | 0.00 | 0.00 | 28 | 1013.2 |
| 20260901195506 | 70 | 166 | 7.0 | 14.0 | 0.00 | 0.00 | 0.00 | 30 | 1013.2 |
| 20260901195005 | 70 | 160 | 5.0 | 14.0 | 0.00 | 0.00 | 0.00 | 30 | 1013.2 |
| 20260901194505 | 70 | 170 | 5.0 | 10.0 | 0.00 | 0.00 | 0.00 | 30 | 1013.2 |
| 20260901194006 | 71 | 181 | 0.0 | 8.0 | 0.00 | 0.00 | 0.00 | 31 | 1013.2 |
| 20260901193505 | 69 | 181 | 3.0 | 9.0 | 0.00 | 0.00 | 0.00 | 32 | 1013.2 |
| 20260901193005 | 69 | 174 | 3.0 | 9.0 | 0.00 | 0.00 | 0.00 | 33 | 1013.3 |
| 20260901192505 | 68 | 177 | 4.0 | 11.0 | 0.00 | 0.00 | 0.00 | 35 | 1013.3 |
| 20260901192005 | 68 | 177 | 6.0 | 11.0 | 0.00 | 0.00 | 0.00 | 35 | 1013.3 |
| 20260901191506 | 68 | 177 | 4.0 | 11.0 | 0.00 | 0.00 | 0.00 | 36 | 1013.4 |
| 20260901191005 | 68 | 188 | 2.0 | 12.0 | 0.00 | 0.00 | 0.00 | 36 | 1013.5 |
| 20260901190510 | 67 | 163 | 2.0 | 12.0 | 0.00 | 0.00 | 0.00 | 37 | 1013.5 |
| 20260901190006 | 68 | 192 | 3.0 | 11.0 | 0.00 | 0.00 | 0.00 | 36 | 1013.4 |
| 20260901185510 | 67 | 190 | 3.0 | 11.0 | 0.00 | 0.00 | 0.00 | 37 | 1013.4 |
| 20260901185005 | 67 | 197 | 0.0 | 10.0 | 0.00 | 0.00 | 0.00 | 38 | 1013.4 |
| 20260901184505 | 66 | 197 | 4.0 | 10.0 | 0.00 | 0.00 | 0.00 | 39 | 1013.5 |
| 20260901184008 | 65 | 185 | 0.0 | 8.0 | 0.00 | 0.00 | 0.00 | 41 | 1013.6 |
| 20260901183504 | 64 | 185 | 4.0 | 7.0 | 0.00 | 0.00 | 0.00 | 43 | 1013.7 |
| 20260901183005 | 64 | 175 | 3.0 | 8.0 | 0.00 | 0.00 | 0.00 | 42 | 1013.8 |
| 20260901182506 | 63 | 187 | 2.0 | 11.0 | 0.00 | 0.00 | 0.00 | 43 | 1013.8 |
| 20260901182005 | 62 | 189 | 4.0 | 12.0 | 0.00 | 0.00 | 0.00 | 44 | 1013.9 |
| 20260901181504 | 62 | 174 | 8.0 | 12.0 | 0.00 | 0.00 | 0.00 | 45 | 1013.9 |
| 20260901181005 | 62 | 170 | 7.0 | 12.0 | 0.00 | 0.00 | 0.00 | 46 | 1013.9 |
| 20260901180507 | 61 | 185 | 5.0 | 12.0 | 0.00 | 0.00 | 0.00 | 45 | 1013.9 |
| 20260901180005 | 60 | 183 | 7.0 | 12.0 | 0.00 | 0.00 | 0.00 | 48 | 1013.9 |
| 20260901175505 | 60 | 168 | 7.0 | 11.0 | 0.00 | 0.00 | 0.00 | 48 | 1014.0 |
| 20260901175005 | 61 | 155 | 8.0 | 11.0 | 0.00 | 0.00 | 0.00 | 50 | 1014.0 |
| 20260901174505 | 60 | 174 | 7.0 | 15.0 | 0.00 | 0.00 | 0.00 | 53 | 1014.0 |
| 20260901174007 | 60 | 185 | 10.0 | 14.0 | 0.00 | 0.00 | 0.00 | 52 | 1014.0 |
| 20260901173505 | 59 | 179 | 9.0 | 14.0 | 0.00 | 0.00 | 0.00 | 54 | 1014.1 |
| 20260901173005 | 59 | 149 | 8.0 | 13.0 | 0.00 | 0.00 | 0.00 | 56 | 1013.9 |
| 20260901172505 | 58 | 174 | 10.0 | 15.0 | 0.00 | 0.00 | 0.00 | 56 | 1014.0 |
| 20260901172008 | 58 | 171 | 9.0 | 15.0 | 0.00 | 0.00 | 0.00 | 57 | 1013.9 |
| 20260901171507 | 58 | 201 | 8.0 | 13.0 | 0.00 | 0.00 | 0.00 | 58 | 1013.9 |
| 20260901171105 | 57 | 177 | 9.0 | 12.0 | 0.00 | 0.00 | 0.00 | 58 | 1013.6 |
| 20260901170505 | 56 | 170 | 4.0 | 10.0 | 0.00 | 0.00 | 0.00 | 60 | 1013.6 |
| 20260901170006 | 56 | 191 | 6.0 | 9.0 | 0.00 | 0.00 | 0.00 | 61 | 1013.4 |
| 20260901165505 | 55 | 179 | 4.0 | 10.0 | 0.00 | 0.00 | 0.00 | 64 | 1013.5 |
| 20260901165105 | 55 | 172 | 7.0 | 12.0 | 0.00 | 0.00 | 0.00 | 64 | 1013.6 |
| 20260901164515 | 55 | 154 | 8.0 | 12.0 | 0.00 | 0.00 | 0.00 | 65 | 1013.6 |
| 20260901164005 | 54 | 160 | 9.0 | 11.0 | 0.00 | 0.00 | 0.00 | 66 | 1013.6 |
| 20260901163605 | 54 | 164 | 8.0 | 12.0 | 0.00 | 0.00 | 0.00 | 66 | 1013.6 |
| 20260901163007 | 54 | 171 | 6.0 | 12.0 | 0.00 | 0.00 | 0.00 | 66 | 1013.4 |
| 20260901162505 | 54 | 170 | 4.0 | 13.0 | 0.00 | 0.00 | 0.00 | 69 | 1013.5 |
| 20260901162009 | 54 | 168 | 8.0 | 12.0 | 0.00 | 0.00 | 0.00 | 69 | 1013.5 |
| 20260901161509 | 53 | 160 | 7.0 | 13.0 | 0.00 | 0.00 | 0.00 | 70 | 1013.5 |
| 20260901161005 | 53 | 157 | 8.0 | 13.0 | 0.00 | 0.00 | 0.00 | 69 | 1013.5 |
| 20260901160507 | 53 | 156 | 4.0 | 14.0 | 0.00 | 0.00 | 0.00 | 70 | 1013.5 |
| 20260901160006 | 53 | 197 | 9.0 | 14.0 | 0.00 | 0.00 | 0.00 | 71 | 1013.4 |
| 20260901155608 | 53 | 185 | 10.0 | 13.0 | 0.00 | 0.00 | 0.00 | 71 | 1013.4 |
| 20260901155005 | 53 | 173 | 9.0 | 13.0 | 0.00 | 0.00 | 0.00 | 71 | 1013.3 |
| 20260901154605 | 53 | 170 | 8.0 | 12.0 | 0.00 | 0.00 | 0.00 | 71 | 1013.3 |
| 20260901154010 | 52 | 183 | 6.0 | 13.0 | 0.00 | 0.00 | 0.00 | 72 | 1013.2 |
| 20260901153508 | 52 | 166 | 8.0 | 13.0 | 0.00 | 0.00 | 0.00 | 74 | 1013.2 |
| 20260901153006 | 52 | 174 | 10.0 | 13.0 | 0.00 | 0.00 | 0.00 | 74 | 1013.2 |
| 20260901152506 | 52 | 160 | 8.0 | 13.0 | 0.00 | 0.00 | 0.00 | 75 | 1013.1 |
| 20260901152005 | 52 | 177 | 8.0 | 12.0 | 0.00 | 0.00 | 0.00 | 75 | 1013.1 |
| 20260901151506 | 52 | 160 | 6.0 | 11.0 | 0.00 | 0.00 | 0.00 | 75 | 1012.8 |
| 20260901151006 | 52 | 171 | 6.0 | 11.0 | 0.00 | 0.00 | 0.00 | 75 | 1012.7 |
| 20260901150506 | 52 | 174 | 5.0 | 12.0 | 0.00 | 0.00 | 0.00 | 75 | 1012.7 |
| 20260901150005 | 52 | 174 | 7.0 | 12.0 | 0.00 | 0.00 | 0.00 | 76 | 1012.7 |
| 20260901145506 | 52 | 168 | 7.0 | 11.0 | 0.00 | 0.00 | 0.00 | 76 | 1012.8 |
| 20260901145006 | 52 | 181 | 7.0 | 12.0 | 0.00 | 0.00 | 0.00 | 76 | 1012.7 |
| 20260901144505 | 51 | 174 | 6.0 | 12.0 | 0.00 | 0.00 | 0.00 | 77 | 1012.6 |
| 20260901144006 | 51 | 163 | 6.0 | 9.0 | 0.00 | 0.00 | 0.00 | 78 | 1012.5 |
| 20260901143505 | 51 | 178 | 4.0 | 10.0 | 0.00 | 0.00 | 0.00 | 78 | 1012.4 |
| 20260901143006 | 51 | 161 | 4.0 | 7.0 | 0.00 | 0.00 | 0.00 | 78 | 1012.4 |
| 20260901142506 | 51 | 161 | 0.0 | 1.0 | 0.00 | 0.00 | 0.00 | 79 | 1012.4 |
| 20260901142005 | 50 | 161 | 0.0 | 0.0 | 0.00 | 0.00 | 0.00 | 80 | 1012.3 |
| 20260901141506 | 50 | 161 | 0.0 | 0.0 | 0.00 | 0.00 | 0.00 | 80 | 1012.3 |
| 20260901141007 | 50 | 161 | 0.0 | 2.0 | 0.00 | 0.00 | 0.00 | 80 | 1012.3 |
| 20260901140608 | 50 | 161 | 0.0 | 2.0 | 0.00 | 0.00 | 0.00 | 80 | 1012.2 |
| 20260901135006 | 50 | 160 | 1.0 | 11.0 | 0.00 | 0.00 | 0.00 | 81 | 1012.1 |
| 20260901134613 | 51 | 165 | 5.0 | 11.0 | 0.00 | 0.00 | 0.00 | 81 | 1012.1 |
| 20260901133505 | 51 | 167 | 2.0 | 8.0 | 0.00 | 0.00 | 0.00 | 81 | 1012.1 |
| 20260901133006 | 51 | 167 | 3.0 | 9.0 | 0.00 | 0.00 | 0.00 | 81 | 1012.0 |
| 20260901132506 | 51 | 166 | 4.0 | 8.0 | 0.00 | 0.00 | 0.00 | 81 | 1012.0 |
| 20260901060007 | 58 | 310 | 2.0 | 6.0 | 0.00 | 0.00 | 0.00 | 63 | 1010.1 |
| 20260901055507 | 59 | 179 | 0.0 | 5.0 | 0.00 | 0.00 | 0.00 | 61 | 1010.0 |
| 20260901055006 | 59 | 177 | 0.0 | 4.0 | 0.00 | 0.00 | 0.00 | 60 | 1009.9 |
| 20260901054506 | 59 | 177 | 0.0 | 4.0 | 0.00 | 0.00 | 0.00 | 59 | 1009.9 |
| 20260901054007 | 60 | 177 | 0.0 | 6.0 | 0.00 | 0.00 | 0.00 | 57 | 1009.9 |
| 20260901053506 | 61 | 177 | 0.0 | 7.0 | 0.00 | 0.00 | 0.00 | 56 | 1009.9 |
| 20260901053007 | 61 | 177 | 3.0 | 10.0 | 0.00 | 0.00 | 0.00 | 56 | 1010.0 |
| 20260901052506 | 61 | 176 | 0.0 | 7.0 | 0.00 | 0.00 | 0.00 | 56 | 1010.0 |
| 20260901052006 | 61 | 175 | 1.0 | 6.0 | 0.00 | 0.00 | 0.00 | 57 | 1010.1 |
| 20260901051506 | 61 | 175 | 0.0 | 7.0 | 0.00 | 0.00 | 0.00 | 55 | 1010.2 |
| 20260901051007 | 61 | 175 | 0.0 | 9.0 | 0.00 | 0.00 | 0.00 | 56 | 1010.2 |
| 20260901050506 | 61 | 176 | 2.0 | 10.0 | 0.00 | 0.00 | 0.00 | 56 | 1010.1 |
| 20260901050006 | 59 | 189 | 4.0 | 10.0 | 0.00 | 0.00 | 0.00 | 60 | 1010.0 |
| 20260901045506 | 57 | 171 | 2.0 | 7.0 | 0.00 | 0.00 | 0.00 | 64 | 1010.1 |
| 20260901045106 | 56 | 331 | 0.0 | 3.0 | 0.00 | 0.00 | 0.00 | 67 | 1010.0 |
| 20260901044508 | 55 | 332 | 0.0 | 0.0 | 0.00 | 0.00 | 0.00 | 67 | 1010.0 |
| 20260901044006 | 56 | 332 | 0.0 | 0.0 | 0.00 | 0.00 | 0.00 | 67 | 1010.1 |
| 20260901043607 | 56 | 332 | 0.0 | 0.0 | 0.00 | 0.00 | 0.00 | 67 | 1010.1 |
| 20260901043006 | 56 | 332 | 0.0 | 0.0 | 0.00 | 0.00 | 0.00 | 67 | 1010.1 |
| 20260901042505 | 57 | 332 | 0.0 | 0.0 | 0.00 | 0.00 | 0.00 | 66 | 1010.1 |
| 20260901042006 | 57 | 332 | 0.0 | 0.0 | 0.00 | 0.00 | 0.00 | 65 | 1009.9 |
| 20260901041520 | 57 | 332 | 0.0 | 5.0 | 0.00 | 0.00 | 0.00 | 65 | 1009.9 |
| 20260901041006 | 57 | 332 | 1.0 | 5.0 | 0.00 | 0.00 | 0.00 | 65 | 1009.8 |
| 20260901040506 | 58 | 332 | 1.0 | 5.0 | 0.00 | 0.00 | 0.00 | 64 | 1009.7 |
| 20260901040006 | 58 | 332 | 1.0 | 4.0 | 0.00 | 0.00 | 0.00 | 64 | 1009.6 |
| 20260901035507 | 58 | 332 | 0.0 | 5.0 | 0.00 | 0.00 | 0.00 | 64 | 1009.6 |
| 20260901035007 | 58 | 332 | 0.0 | 5.0 | 0.00 | 0.00 | 0.00 | 64 | 1009.4 |
| 20260901034505 | 59 | 332 | 0.0 | 7.0 | 0.00 | 0.00 | 0.00 | 63 | 1009.4 |
| 20260901034006 | 59 | 332 | 2.0 | 7.0 | 0.00 | 0.00 | 0.00 | 62 | 1009.3 |
| 20260901033506 | 60 | 332 | 3.0 | 7.0 | 0.00 | 0.00 | 0.00 | 60 | 1009.2 |
| 20260901033014 | 60 | 332 | 0.0 | 0.0 | 0.00 | 0.00 | 0.00 | 58 | 1009.1 |
| 20260901032507 | 61 | 332 | 0.0 | 5.0 | 0.00 | 0.00 | 0.00 | 57 | 1009.1 |
| 20260901032006 | 61 | 332 | 0.0 | 5.0 | 0.00 | 0.00 | 0.00 | 56 | 1009.1 |
| 20260901031509 | 62 | 332 | 2.0 | 6.0 | 0.00 | 0.00 | 0.00 | 55 | 1009.1 |
| 20260901031006 | 62 | 332 | 1.0 | 6.0 | 0.00 | 0.00 | 0.00 | 54 | 1009.0 |
| 20260901030506 | 63 | 332 | 2.0 | 7.0 | 0.00 | 0.00 | 0.00 | 53 | 1008.8 |
| 20260901030007 | 63 | 332 | 4.0 | 7.0 | 0.00 | 0.00 | 0.00 | 51 | 1008.7 |
| 20260901025509 | 64 | 324 | 0.0 | 6.0 | 0.00 | 0.00 | 0.00 | 49 | 1008.8 |
| 20260901025009 | 65 | 323 | 2.0 | 5.0 | 0.00 | 0.00 | 0.00 | 47 | 1008.7 |
| 20260901024506 | 66 | 179 | 1.0 | 5.0 | 0.00 | 0.00 | 0.00 | 44 | 1008.7 |
| 20260901024010 | 68 | 177 | 0.0 | 2.0 | 0.00 | 0.00 | 0.00 | 41 | 1008.7 |
| 20260901023507 | 69 | 177 | 0.0 | 9.0 | 0.00 | 0.00 | 0.00 | 34 | 1008.7 |
| 20260901023008 | 69 | 177 | 2.0 | 9.0 | 0.00 | 0.00 | 0.00 | 33 | 1008.7 |
| 20260901022510 | 70 | 160 | 5.0 | 9.0 | 0.00 | 0.00 | 0.00 | 32 | 1008.6 |
| 20260901022007 | 70 | 160 | 5.0 | 10.0 | 0.00 | 0.00 | 0.00 | 31 | 1008.5 |
| 20260901021515 | 70 | 160 | 7.0 | 10.0 | 0.00 | 0.00 | 0.00 | 31 | 1008.6 |
| 20260901021007 | 70 | 158 | 5.0 | 9.0 | 0.00 | 0.00 | 0.00 | 30 | 1008.6 |
| 20260901020507 | 71 | 152 | 4.0 | 9.0 | 0.00 | 0.00 | 0.00 | 30 | 1008.6 |
| 20260901020008 | 72 | 170 | 3.0 | 12.0 | 0.00 | 0.00 | 0.00 | 28 | 1008.6 |
| 20260901015606 | 72 | 171 | 2.0 | 12.0 | 0.00 | 0.00 | 0.00 | 28 | 1008.6 |
| 20260901015007 | 73 | 177 | 2.0 | 9.0 | 0.00 | 0.00 | 0.00 | 26 | 1008.6 |
| 20260901014506 | 74 | 170 | 0.0 | 13.0 | 0.00 | 0.00 | 0.00 | 22 | 1008.6 |
| 20260901014006 | 74 | 169 | 9.0 | 13.0 | 0.00 | 0.00 | 0.00 | 20 | 1008.5 |
| 20260901013506 | 74 | 170 | 4.0 | 11.0 | 0.00 | 0.00 | 0.00 | 18 | 1008.6 |
| 20260901013007 | 74 | 168 | 1.0 | 11.0 | 0.00 | 0.00 | 0.00 | 18 | 1008.5 |
| 20260901012607 | 74 | 166 | 3.0 | 11.0 | 0.00 | 0.00 | 0.00 | 18 | 1008.5 |
| 20260901012007 | 75 | 164 | 4.0 | 8.0 | 0.00 | 0.00 | 0.00 | 17 | 1008.6 |
| 20260901011506 | 75 | 195 | 0.0 | 8.0 | 0.00 | 0.00 | 0.00 | 16 | 1008.6 |
| 20260901011006 | 75 | 181 | 0.0 | 9.0 | 0.00 | 0.00 | 0.00 | 16 | 1008.5 |
| 20260901010507 | 76 | 195 | 4.0 | 9.0 | 0.00 | 0.00 | 0.00 | 15 | 1008.5 |
| 20260901010015 | 76 | 197 | 3.0 | 14.0 | 0.00 | 0.00 | 0.00 | 15 | 1008.5 |
| 20260901005507 | 76 | 203 | 7.0 | 14.0 | 0.00 | 0.00 | 0.00 | 15 | 1008.4 |
| 20260901005006 | 76 | 199 | 6.0 | 12.0 | 0.00 | 0.00 | 0.00 | 15 | 1008.5 |
| 20260901004507 | 76 | 193 | 5.0 | 14.0 | 0.00 | 0.00 | 0.00 | 16 | 1008.5 |
| 20260901004006 | 76 | 198 | 9.0 | 15.0 | 0.00 | 0.00 | 0.00 | 16 | 1008.6 |
| 20260901003506 | 76 | 206 | 3.0 | 11.0 | 0.00 | 0.00 | 0.00 | 16 | 1008.7 |
| 20260901003012 | 76 | 193 | 0.0 | 9.0 | 0.00 | 0.00 | 0.00 | 15 | 1008.7 |
| 20260901002507 | 77 | 187 | 5.0 | 15.0 | 0.00 | 0.00 | 0.00 | 14 | 1008.8 |
| 20260901002005 | 77 | 175 | 9.0 | 15.0 | 0.00 | 0.00 | 0.00 | 14 | 1008.8 |
| 20260901001507 | 77 | 166 | 6.0 | 16.0 | 0.00 | 0.00 | 0.00 | 15 | 1008.8 |
| 20260901001006 | 77 | 187 | 8.0 | 16.0 | 0.00 | 0.00 | 0.00 | 14 | 1008.8 |
| 20260901000506 | 77 | 179 | 7.0 | 15.0 | 0.00 | 0.00 | 0.00 | 17 | 1008.8 |
| 20260901000018 | 77 | 199 | 4.0 | 16.0 | 0.00 | 0.00 | 0.00 | 18 | 1008.7 |
| 20260831235506 | 77 | 188 | 9.0 | 16.0 | 0.00 | 0.00 | 0.00 | 17 | 1008.8 |
| 20260831235007 | 78 | 205 | 4.0 | 17.0 | 0.00 | 0.00 | 0.00 | 18 | 1008.7 |
| 20260831234507 | 78 | 177 | 4.0 | 19.0 | 0.00 | 0.00 | 0.00 | 18 | 1008.6 |
| 20260831234008 | 77 | 199 | 9.0 | 20.0 | 0.00 | 0.00 | 0.00 | 18 | 1008.7 |
| 20260831233507 | 77 | 164 | 13.0 | 20.0 | 0.00 | 0.00 | 0.00 | 19 | 1008.7 |
| 20260831233006 | 78 | 169 | 11.0 | 19.0 | 0.00 | 0.00 | 0.00 | 19 | 1008.6 |
| 20260831232506 | 78 | 170 | 13.0 | 19.0 | 0.00 | 0.00 | 0.00 | 18 | 1008.6 |
| 20260831232006 | 78 | 191 | 11.0 | 17.0 | 0.00 | 0.00 | 0.00 | 18 | 1008.6 |
| 20260831231506 | 79 | 177 | 10.0 | 17.0 | 0.00 | 0.00 | 0.00 | 18 | 1008.6 |
| 20260831231007 | 79 | 194 | 9.0 | 16.0 | 0.00 | 0.00 | 0.00 | 18 | 1008.6 |
| 20260831230506 | 79 | 185 | 6.0 | 14.0 | 0.00 | 0.00 | 0.00 | 18 | 1008.7 |
| 20260831230117 | 79 | 145 | 6.0 | 17.0 | 0.00 | 0.00 | 0.00 | 19 | 1008.8 |
| 20260831225506 | 78 | 177 | 11.0 | 17.0 | 0.00 | 0.00 | 0.00 | 19 | 1008.9 |
| 20260831225008 | 79 | 176 | 7.0 | 15.0 | 0.00 | 0.00 | 0.00 | 18 | 1009.0 |